SCOUT G-1 DEB, 18426

Orbit data source: Space-Track

SCOUT G-1 DEB, 18426 is space debris in LEO originally from a launch on Fri, 14 Nov 1986 UTC launched from the Air Force Western Test Range (AFWTR). Debris objects in space refer to the collection of defunct objects orbiting the Earth. Examples of debris include non-operational satellites, rocket bodies, and fragments generated from explosions, collisions, or faulty payload assembly.

Loading next visibility...
Identifier
18426, 1986-088C
Orbit
LEO
Country
Flag of USUS
Related business
Manufacturer
Unknown
Mission
Spacecraft
Bus & Motor
Unknown
Mass
2 kg wet, 2 kg dry
Launch date (UTC)
1986-11-14 (39 years ago)
Launch vehicle
Unknown
Launch site
Air Force Western Test Range (AFWTR)
Object type
Payload
Rocket body
Debris
Shape & HBR
Unknown
Radar Cross Section
Small (<0.1 m²)

Expand to show TLE details & history
Last TLE update: 10 hours ago

TLE from 10 hours ago
0 SCOUT G-1 DEB
1 18426U 86088C   25261.06657086  .00000203  00000-0  20148-3 0  9998
2 18426  89.1114 278.0113 0066797 251.9689 172.1016 13.73760438943583
Epoch: 2025-09-18T01:35Z
TLE epoch observation values (Epoch: 2025-09-18T01:35:51.722Z)
Latitude
64.24417°
Longitude
-101.35495°
Altitude
1,046.003 km
Speed
7.31 km/s
True Right ascension
18h 39m 22s
True Declination
64° 06' 52"
Sunlit
Object was in daylight at epoch
Visualization orbit readout
Latitude
Unknown
Longitude
Unknown
Altitude
Unknown
Speed
Unknown
Apparent Right ascension
Unknown
Apparent Declination
Unknown
Sunlit
N/A
Visualization observer readout
Local Sidereal Time
04:30:35
Azimuth
Unknown
Elevation
Unknown
Doppler factor
Unknown
Orbital elements
Apogee altitude
1,032.29 km
Perigee altitude
933.948 km
Semi-major axis
7,361.256 km
Eccentricity
0.00668
Inclination
89.1114°
RAAN
278.0113°
Arg. of periapsis
251.9689°
True anomaly
172.20592°
Mean anomaly
172.1016°
Eccentric anomaly
172.15385°
Mean motion
3.43649 °/min
Orbital period
104.76 mins
BSTAR
0.00020148
Loading maneuver chart data...
Computing Atmospheric mass density...
Loading historical data...
Loading historical data...
Loading historical data...
Loading historical data...
Loading historical data...
Loading historical data...
Loading historical data...
Other satellites on launch #88 in the year 1986 (1986-11-14 UTC)

Documentation

Showing up to 5 results
|